STARLINK-35690

Last updated on Wed Dec 10 2025 00:02:05 GMT+0000 (Coordinated Universal Time)

1 66383U 25257D 25343.13101204 .00078758 00000+0 19585-2 0 9990 2 66383 53.1610 281.5551 0001236 87.6681 272.4465 15.39621685 5819
UTC large
Height (km)
Speed (km/s)
/
Latitude / Longitude
Inclination (degrees)
Orbital Period (minutes)
Azimuth
Elevation
Range (km)
Doppler Factor

Next 0 passes for location: London (51.5072 / 0.1276)

Sorry there are no passes over London.